Regional Weather Roundup
Issued by NWS

Home | Current Version | Previous Version | Graphics & Text | Print | Product List | Glossary On
Versions: 1 2 3 4 5 6 7 8 9 10 11 12 13 14 15 16 17 18 19 20 21 22 23 24 25 26 27 28 29 30 31 32 33 34 35 36 37 38 39 40 41 42 43 44 45 46 47 48 49 50
000
ASUS44 KMEG 230100
RWRTN
TENNESSEE HOURLY STATE WEATHER ROUNDUP
NATIONAL WEATHER SERVICE MEMPHIS TN
700 PM CST SAT NOV 22 2014

TNZ002-004-019-021-049-052-054-088>092-230200-
WEST TENNESSEE

CITY           SKY/WX    TMP DP  RH WIND       PRES   REMARKS
MEMPHIS INTL   PTCLDY    58  40  51 SE7       30.04S
NWS MEMPHIS      N/A     56 N/A N/A MISG        N/A
JACKSON        MOCLDY    57  37  47 S5        30.07S
DYERSBURG      MOCLDY    57  32  38 SE6       30.06S
UNION CITY     CLOUDY    57  37  47 CALM      30.05S
PARIS          MOCLDY    52  36  54 SE6       30.07F
LEXINGTON      CLEAR     57  36  44 CALM      30.08R
SAVANNAH       CLEAR     54  41  62 S6        30.09S
$$

TNZ008-025-027-028-033-062-065-066-230200-
NORTH MIDDLE TENNESSEE

CITY           SKY/WX    TMP DP  RH WIND       PRES   REMARKS
NASHVILLE      MOCLDY    58  41  53 S9        30.13R
CLARKSVILLE    PTCLDY    58  33  39 S5        30.09S
COOKEVILLE     CLEAR     54  34  47 S7        30.15S
CROSSVILLE     MOCLDY    53  33  46 S9G21     30.17F
$$

TNZ061-075-076-078-094-096-097-230200-
SOUTH MIDDLE TENNESSEE

CITY           SKY/WX    TMP DP  RH WIND       PRES   REMARKS
FAYETTEVILLE   CLEAR     52  37  58 N23G48    30.14F
TULLAHOMA      CLEAR     54  34  47 SE8       30.15F
WINCHESTER     CLEAR     54  34  47 SE13      30.16F
SHELBYVILLE    CLEAR     55  41  58 SE7       30.15S
$$

TNZ017-018-042-046-047-230200-
NORTHEAST TENNESSEE

CITY           SKY/WX    TMP DP  RH WIND       PRES   REMARKS
TRI CITIES     CLEAR     37  25  61 CALM      30.25S
ELIZABETHTON   CLEAR     37  25  60 E5        30.26F WCI  34
$$

TNZ012-013-036-069-073-074-230200-
CENTRAL EAST TENNESSEE

CITY           SKY/WX    TMP DP  RH WIND       PRES   REMARKS
KNOXVILLE      MOCLDY    47  28  47 CALM      30.20F
OAK RIDGE      MOCLDY    46  34  62 CALM      30.22F
GATLINBURG     CLEAR     39  28  65 CALM      30.21F
$$

TNZ083-085-099-230200-
SOUTHEAST TENNESSEE

CITY           SKY/WX    TMP DP  RH WIND       PRES   REMARKS
CHATTANOOGA    CLOUDY    56  29  35 S7        30.23S
$$

SKY/WX REPORTED AS FAIR MEANS FEW OR NO CLOUDS BELOW
12 THOUSAND FEET.



USA.gov is the U.S. government's official web portal to all federal, state and local government web resources and services.